Regional Weather Roundup
Issued by NWS

Home | Current Version | Previous Version | Graphics & Text | Print | Product List | Glossary On
Versions: 1 2 3 4 5 6 7 8 9 10 11 12 13 14 15 16 17 18 19 20 21 22 23 24 25 26 27
000
ASUS45 KBOU 200707
RWRCO

WEATHER ROUNDUP FOR COLORADO
NATIONAL WEATHER SERVICE DENVER/BOULDER CO
100 AM MDT THU JUL 20 2017

NOTE: "FAIR" INDICATES FEW OR NO CLOUDS BELOW 12000 FEET WITH NO
SIGNIFICANT WEATHER AND/OR OBSTRUCTIONS TO VISIBILITY.

COZ001>005-013-030-031-200800-
...NORTHWEST COLORADO...

CITY           SKY/WX    TMP DP  RH WIND       PRES   REMARKS
CRAIG          FAIR      63  55  75 SE10      30.31F
HAYDEN         FAIR      59  52  77 SE8       30.35F
MEEKER         FAIR      61  58  90 E6        30.35F
RABBIT EARS PA CLOUDY    48  45  87 W10G16    30.62F
STEAMBOAT SPGS MOCLDY    58  56  91 CALM      30.38F
WALDEN         FAIR      57  50  77 SE5       30.46S
$$

COZ006>008-011-200800-
...WEST CENTRAL VALLEYS...

CITY           SKY/WX    TMP DP  RH WIND       PRES   REMARKS
GRAND JUNCTION FAIR      75  56  51 SW12G18   30.17F
MONTROSE       CLOUDY    72  56  57 S15       30.31R THUNDER
EAGLE          FAIR      63  54  72 E6        30.39R
RIFLE          LGT RAIN  69  59  70 S3        30.31R
DELTA          FAIR      73  59  60 CALM      30.23R
NUCLA          FAIR      68  54  60 NE7       30.28S
$$

COZ017>023-064>068-200800-
...SOUTHWEST COLORADO...

CITY           SKY/WX    TMP DP  RH WIND       PRES   REMARKS
DURANGO        FAIR      64  51  62 NE12      30.30R
CORTEZ         LGT RAIN  75  51  43 N13G24    30.21F
PAGOSA SPRINGS FAIR      64  49  58 N5        30.40F
TELLURIDE      FAIR      61  46  57 SE7       30.53F
WOLF CREEK PAS MOCLDY    46  41  81 SW12      30.78F
$$

COZ009-010-012-014-032>034-037-058>063-200800-
...CENTRAL COLORADO...

CITY           SKY/WX    TMP DP  RH WIND       PRES   REMARKS
ASPEN          MOCLDY    55  52  89 S6        30.45R
BUENA VISTA    FAIR      58  50  74 W10       30.44R
COPPER MTN     FAIR      54  41  62 CALM      30.75S
BERTHOUD PASS  FAIR      43  30  61 NW15G21   30.77S
COTTONWOOD PAS FAIR      61  43  51 SW6       30.57R
GUNNISON       FAIR      57  52  83 NW3       30.42R
KREMMLING      MOCLDY    63  57  82 CALM      30.43F
LEADVILLE      FAIR      47  45  93 NE5       30.57F
MONARCH PASS   FAIR      52  36  54 W14       30.84R
SALIDA         FAIR      62  51  66 SW6       30.48R
SUNLIGHT       CLOUDY    50  43  76 NE5       30.69R
WILKERSON PASS FAIR      55  34  44 NW7       30.70F
$$

COZ069>075-200800-
...SAN LUIS VALLEY/SANGRE DE CRISTO MOUNTAINS...

CITY           SKY/WX    TMP DP  RH WIND       PRES   REMARKS
ALAMOSA        FAIR      59  52  77 W6        30.37S
DEL NORTE      FAIR      63  48  58 W13       30.42R
LA VETA PASS   NOT AVBL
SAGUACHE         N/A    N/A N/A N/A MISG        N/A
$$

COZ035-036-038>040-200800-
...NORTHERN COLORADO FRONT RANGE...

CITY           SKY/WX    TMP DP  RH WIND       PRES   REMARKS
DENVER INTL AP MOCLDY    74  50  42 N12       30.20R
DMNS CITY PARK   N/A     70  56  61 NE1G8     30.20S
AURORA         NOT AVBL
FRONT RANGE AP FAIR      75  50  41 N14G26    30.21S
ERIE MUNI ARPT FAIR      68  50  53 CALM      30.18S
BOULDER MUN AP FAIR      72  54  53 S3        30.20R
CENTENNIAL     FAIR      72  54  53 CALM      30.24R
BROOMFIELD     FAIR      73  48  40 CALM      30.23S
FORT COLLINS   FAIR      76  53  44 N14       30.17F
LONGMONT       FAIR      72  53  50 CALM      30.19S
$$

COZ041-046-047-076>085-087-088-200800-
...PIKES PEAK/PALMER DIVIDE AND SOUTHERN FOOTHILLS...

CITY           SKY/WX    TMP DP  RH WIND       PRES   REMARKS
COLO. SPRINGS  FAIR      70  52  52 N9        30.23S
A. F. ACADEMY  NOT AVBL
SCHRIEVER AFB  NOT AVBL
CHEYENNE MTN   NOT AVBL
ELLICOTT       FAIR     N/A N/A N/A CALM      30.22R
FALCON           N/A     70  43  38 N6        30.32R
FORT CARSON    FAIR      65  57  76 N5        30.20R
LIMON          FAIR      68  55  63 W5        30.18S
MONUMENT HILL  FAIR      64  48  55 N8        30.35R
CANON CITY     CLEAR     73  55  53 W12       30.18S
WALSENBURG     FAIR      70  52  52 W9        30.23F
TRINIDAD       FAIR      75  45  34 W10       30.21S
$$

COZ042>045-048>051-090-091-200800-
...NORTHEAST COLORADO...

CITY           SKY/WX    TMP DP  RH WIND       PRES   REMARKS
GREELEY ARPT   FAIR      74  55  51 N12       30.17S
AKRON          FAIR      71  52  50 N10       30.12S
BURLINGTON     FAIR      71  57  61 S12       30.08F
WRAY           NOT AVBL
YUMA           FAIR      70  52  52 SW6       30.06F
STERLING       FAIR      73  63  68 NE14      30.08S
HOLYOKE        FAIR      79  59  50 NE3       30.06R
FORT MORGAN    FAIR      75  55  49 N18G28    30.12S
$$

COZ086-089-092>099-200800-
...SOUTHEAST COLORADO...

CITY           SKY/WX    TMP DP  RH WIND       PRES   REMARKS
PUEBLO         FAIR      70  53  54 CALM      30.11S
LA JUNTA       FAIR      79  50  36 SW15      30.07S
LAMAR          FAIR      76  55  48 SW9       30.03F
SPRINGFIELD      N/A     73  55  53 S14G23    30.13S
$$




USA.gov is the U.S. government's official web portal to all federal, state and local government web resources and services.